When you browse on this site, cookies collect data to enhance your experience and personalize the content and advertising you see.
Visit our Privacy Policy to learn more. By continuing to use the site, you agree to this use of cookies and data.
EN

Hourly Weather Yerevan

Today, 8 July, Wednesday

Time Temperature Precipitation Wind Pressure Humidity
00:00 +26°C° 0 mm 1 mps 687 mmHg 43%
01:00 +26°C° 0 mm 1 mps 687 mmHg 45%
02:00 +25°C° 0 mm 1 mps 687 mmHg 47%
03:00 +24°C° 0 mm 1 mps 687 mmHg 51%
04:00 +25°C° 0 mm 2 mps 687 mmHg 50%
05:00 +25°C° 0 mm 2 mps 687 mmHg 49%
06:00 +26°C° 0 mm 2 mps 687 mmHg 48%
07:00 +28°C° 0 mm 2 mps 687 mmHg 43%
08:00 +30°C° 0 mm 2 mps 687 mmHg 38%
09:00 +32°C° 0 mm 1 mps 688 mmHg 32%
10:00 +34°C° 0 mm 2 mps 688 mmHg 29%
11:00 +36°C° 0 mm 2 mps 688 mmHg 26%
12:00 +37°C° 0 mm 3 mps 688 mmHg 23%
13:00 +38°C° 0 mm 3 mps 688 mmHg 21%
14:00 +38°C° 0 mm 2 mps 687 mmHg 19%
15:00 +39°C° 0 mm 2 mps 687 mmHg 18%
16:00 +38°C° 0 mm 2 mps 687 mmHg 19%
17:00 +38°C° 0 mm 2 mps 687 mmHg 21%
18:00 +37°C° 0 mm 2 mps 687 mmHg 23%
19:00 +35°C° 0 mm 3 mps 687 mmHg 29%
20:00 +31°C° 0 mm 3 mps 687 mmHg 34%
21:00 +28°C° 0 mm 4 mps 688 mmHg 40%
22:00 +28°C° 0 mm 4 mps 688 mmHg 43%
23:00 +27°C° 0 mm 4 mps 688 mmHg 45%

Tomorrow, 9 July, Thursday

Time Temperature Precipitation Wind Pressure Humidity
00:00 +26°C° 0 mm 3 mps 688 mmHg 47%
01:00 +25°C° 0 mm 3 mps 688 mmHg 49%
02:00 +24°C° 0 mm 3 mps 688 mmHg 51%
03:00 +24°C° 0 mm 3 mps 688 mmHg 53%
04:00 +24°C° 0 mm 3 mps 688 mmHg 53%
05:00 +25°C° 0 mm 3 mps 688 mmHg 52%
06:00 +25°C° 0 mm 3 mps 688 mmHg 51%
07:00 +27°C° 0 mm 3 mps 688 mmHg 47%
08:00 +28°C° 0 mm 3 mps 688 mmHg 43%
09:00 +30°C° 0 mm 3 mps 689 mmHg 38%
10:00 +33°C° 0 mm 3 mps 689 mmHg 35%
11:00 +34°C° 0 mm 3 mps 689 mmHg 31%
12:00 +36°C° 0 mm 2 mps 688 mmHg 28%
13:00 +36°C° 0 mm 3 mps 688 mmHg 27%
14:00 +37°C° 0 mm 3 mps 688 mmHg 25%
15:00 +38°C° 0 mm 3 mps 688 mmHg 24%
16:00 +35°C° 0.1 mm 4 mps 688 mmHg 30%
17:00 +33°C° 0.1 mm 4 mps 688 mmHg 37%
18:00 +30°C° 0.1 mm 5 mps 688 mmHg 43%
19:00 +28°C° 0.1 mm 4 mps 688 mmHg 47%
20:00 +27°C° 0.1 mm 3 mps 688 mmHg 52%
21:00 +25°C° 0.1 mm 3 mps 689 mmHg 57%
22:00 +25°C° 0.2 mm 2 mps 689 mmHg 59%
23:00 +24°C° 0.2 mm 2 mps 689 mmHg 62%

Day after tomorrow, 10 July, Friday

Time Temperature Precipitation Wind Pressure Humidity
00:00 +23°C° 0.2 mm 1 mps 689 mmHg 64%
01:00 +23°C° 0.3 mm 1 mps 689 mmHg 66%
02:00 +22°C° 0.3 mm 1 mps 689 mmHg 69%
03:00 +22°C° 0.3 mm 1 mps 688 mmHg 71%
04:00 +22°C° 0.5 mm 1 mps 689 mmHg 70%
05:00 +23°C° 0.5 mm 1 mps 689 mmHg 68%
06:00 +23°C° 0.5 mm 1 mps 689 mmHg 67%
07:00 +25°C° 0.1 mm 1 mps 689 mmHg 61%
08:00 +26°C° 0.1 mm 2 mps 689 mmHg 56%
09:00 +28°C° 0.1 mm 2 mps 690 mmHg 51%
10:00 +29°C° 0.1 mm 1 mps 690 mmHg 46%
11:00 +31°C° 0.1 mm 1 mps 689 mmHg 41%
12:00 +32°C° 0.1 mm 1 mps 689 mmHg 37%
13:00 +33°C° 0.1 mm 1 mps 689 mmHg 34%
14:00 +35°C° 0.1 mm 2 mps 689 mmHg 32%
15:00 +36°C° 0.1 mm 2 mps 689 mmHg 29%
16:00 +35°C° 0.1 mm 2 mps 689 mmHg 30%
17:00 +35°C° 0.1 mm 3 mps 689 mmHg 32%
18:00 +34°C° 0.1 mm 3 mps 689 mmHg 33%
19:00 +30°C° 1.1 mm 3 mps 689 mmHg 45%
20:00 +28°C° 1.1 mm 3 mps 689 mmHg 56%
21:00 +25°C° 1.1 mm 3 mps 689 mmHg 67%
22:00 +24°C° 1.3 mm 2 mps 689 mmHg 70%
23:00 +24°C° 1.3 mm 1 mps 689 mmHg 72%

11 July, Saturday

Time Temperature Precipitation Wind Pressure Humidity
00:00 +23°C° 1.3 mm 1 mps 689 mmHg 74%
01:00 +23°C° 0.5 mm 1 mps 689 mmHg 75%
02:00 +23°C° 0.5 mm 1 mps 689 mmHg 76%
03:00 +23°C° 0.5 mm 1 mps 689 mmHg 77%
04:00 +23°C° 0.3 mm 1 mps 689 mmHg 75%
05:00 +23°C° 0.3 mm 1 mps 689 mmHg 74%
06:00 +23°C° 0.3 mm 1 mps 689 mmHg 72%
07:00 +25°C° 0.2 mm 1 mps 689 mmHg 67%
08:00 +26°C° 0.2 mm 1 mps 689 mmHg 61%
09:00 +27°C° 0.2 mm 1 mps 689 mmHg 56%
10:00 +29°C° 0.3 mm 1 mps 689 mmHg 51%
11:00 +30°C° 0.3 mm 1 mps 689 mmHg 45%
12:00 +32°C° 0.3 mm 2 mps 689 mmHg 40%
13:00 +34°C° 0.1 mm 2 mps 689 mmHg 37%
14:00 +35°C° 0.1 mm 2 mps 689 mmHg 34%
15:00 +35°C° 0.1 mm 2 mps 688 mmHg 31%
16:00 +33°C° 0.4 mm 3 mps 688 mmHg 37%
17:00 +30°C° 0.4 mm 4 mps 688 mmHg 43%
18:00 +28°C° 0.4 mm 5 mps 688 mmHg 50%
19:00 +27°C° 0.5 mm 4 mps 688 mmHg 54%
20:00 +26°C° 0.5 mm 3 mps 688 mmHg 59%
21:00 +25°C° 0.5 mm 1 mps 689 mmHg 64%
22:00 +24°C° 0.4 mm 1 mps 688 mmHg 66%
23:00 +24°C° 0.4 mm 1 mps 688 mmHg 67%

12 July, Sunday

Time Temperature Precipitation Wind Pressure Humidity
00:00 +24°C° 0.4 mm 1 mps 688 mmHg 69%
01:00 +23°C° 0.1 mm 1 mps 688 mmHg 71%
02:00 +23°C° 0.1 mm 1 mps 687 mmHg 73%
03:00 +22°C° 0.1 mm 1 mps 687 mmHg 74%
04:00 +23°C° 0.1 mm 1 mps 687 mmHg 72%
05:00 +23°C° 0.1 mm 1 mps 687 mmHg 70%
06:00 +24°C° 0.1 mm 1 mps 687 mmHg 68%
07:00 +25°C° 0.1 mm 1 mps 687 mmHg 62%
08:00 +26°C° 0.1 mm 1 mps 687 mmHg 57%
09:00 +28°C° 0.1 mm 1 mps 688 mmHg 52%
10:00 +29°C° 0.1 mm 1 mps 688 mmHg 47%
11:00 +31°C° 0.1 mm 2 mps 688 mmHg 42%
12:00 +32°C° 0.1 mm 2 mps 688 mmHg 37%
13:00 +34°C° 0 mm 2 mps 687 mmHg 34%
14:00 +35°C° 0 mm 2 mps 687 mmHg 32%
15:00 +36°C° 0 mm 2 mps 687 mmHg 29%
16:00 +35°C° 0.1 mm 2 mps 687 mmHg 31%
17:00 +34°C° 0.1 mm 1 mps 687 mmHg 33%
18:00 +33°C° 0.1 mm 1 mps 686 mmHg 35%
19:00 +31°C° 0 mm 1 mps 687 mmHg 39%
20:00 +29°C° 0 mm 2 mps 687 mmHg 44%
21:00 +27°C° 0 mm 2 mps 687 mmHg 48%
22:00 +27°C° 0 mm 2 mps 687 mmHg 50%
23:00 +26°C° 0 mm 2 mps 687 mmHg 52%

13 July, Monday

Time Temperature Precipitation Wind Pressure Humidity
00:00 +25°C° 0 mm 1 mps 687 mmHg 55%
01:00 +25°C° 0.1 mm 2 mps 686 mmHg 57%
02:00 +24°C° 0.1 mm 2 mps 686 mmHg 59%
03:00 +23°C° 0.1 mm 2 mps 686 mmHg 61%
04:00 +24°C° 0.1 mm 2 mps 686 mmHg 60%
05:00 +24°C° 0.1 mm 1 mps 686 mmHg 60%
06:00 +25°C° 0.1 mm 1 mps 686 mmHg 60%
07:00 +26°C° 0 mm 1 mps 686 mmHg 54%
08:00 +28°C° 0 mm 1 mps 686 mmHg 49%
09:00 +30°C° 0 mm 1 mps 686 mmHg 43%
10:00 +31°C° 0.1 mm 1 mps 686 mmHg 40%
11:00 +32°C° 0.1 mm 1 mps 686 mmHg 36%
12:00 +34°C° 0.1 mm 1 mps 686 mmHg 33%
13:00 +34°C° 0.1 mm 1 mps 686 mmHg 31%
14:00 +36°C° 0.1 mm 2 mps 686 mmHg 30%
15:00 +36°C° 0.1 mm 3 mps 686 mmHg 28%
16:00 +35°C° 0.1 mm 4 mps 686 mmHg 32%
17:00 +33°C° 0.1 mm 4 mps 686 mmHg 35%
18:00 +30°C° 0.1 mm 4 mps 686 mmHg 39%
19:00 +29°C° 0 mm 4 mps 686 mmHg 42%
20:00 +28°C° 0 mm 4 mps 687 mmHg 45%
21:00 +26°C° 0 mm 3 mps 687 mmHg 48%
22:00 +26°C° 0 mm 3 mps 687 mmHg 51%
23:00 +25°C° 0 mm 2 mps 687 mmHg 53%
Show more